Time,TemperatureF,DewpointF,PressureIn,WindDirection,WindDirectionDegrees,WindSpeedMPH,WindSpeedGustMPH,Humidity,HourlyPrecipIn,Conditions,Clouds,dailyrainin,SoftwareType,DateUTC
2013-02-15 00:01:00,37.0,34.0,-100.00,SSW,210,9.0,11.0,89,-99.99,,,-99.99,,2013-02-15 05:01:00,
2013-02-15 00:11:00,37.0,34.0,-100.00,SSW,210,9.0,11.0,89,-99.99,,,-99.99,,2013-02-15 05:11:00,
2013-02-15 00:22:00,37.0,34.0,-100.00,SSW,210,9.0,11.0,89,-99.99,,,-99.99,,2013-02-15 05:22:00,
2013-02-15 00:41:00,37.0,35.0,-100.00,SSW,210,9.0,11.0,92,-99.99,,,-99.99,,2013-02-15 05:41:00,
2013-02-15 00:51:00,37.0,35.0,-100.00,SSW,210,9.0,11.0,92,-99.99,,,-99.99,,2013-02-15 05:51:00,
2013-02-15 01:01:00,37.0,35.0,-100.00,SSW,210,9.0,13.0,93,-99.99,,,-99.99,,2013-02-15 06:01:00,
2013-02-15 01:11:00,37.0,35.0,-100.00,SSW,210,9.0,13.0,93,-99.99,,,-99.99,,2013-02-15 06:11:00,
2013-02-15 01:21:00,37.0,36.0,-100.00,SSW,210,11.0,11.0,94,-99.99,,,-99.99,,2013-02-15 06:21:00,
2013-02-15 01:30:00,37.0,36.0,-100.00,SW,220,9.0,11.0,94,-99.99,,,-99.99,,2013-02-15 06:30:00,
2013-02-15 01:31:00,37.0,36.0,-100.00,SSW,210,11.0,11.0,94,-99.99,,,-99.99,,2013-02-15 06:31:00,
2013-02-15 01:41:00,37.0,36.0,-100.00,SW,220,11.0,13.0,93,-99.99,,,-99.99,,2013-02-15 06:41:00,
2013-02-15 01:51:00,37.0,36.0,-100.00,SW,220,11.0,13.0,93,-99.99,,,-99.99,,2013-02-15 06:51:00,
2013-02-15 02:01:00,37.0,36.0,-100.00,SW,220,9.0,11.0,94,-99.99,,,-99.99,,2013-02-15 07:01:00,
2013-02-15 02:11:00,37.0,36.0,-100.00,SW,220,9.0,11.0,94,-99.99,,,-99.99,,2013-02-15 07:11:00,
2013-02-15 02:21:00,37.0,36.0,-100.00,SW,220,9.0,11.0,94,-99.99,,,-99.99,,2013-02-15 07:21:00,
2013-02-15 03:31:00,37.0,35.0,-100.00,SSW,210,11.0,13.0,91,-99.99,,,-99.99,,2013-02-15 08:31:00,
2013-02-15 03:41:00,37.0,35.0,-100.00,SSW,210,11.0,13.0,91,-99.99,,,-99.99,,2013-02-15 08:41:00,
2013-02-15 03:52:00,37.0,35.0,-100.00,SSW,210,11.0,13.0,91,-99.99,,,-99.99,,2013-02-15 08:52:00,
2013-02-15 04:01:00,37.0,35.0,-100.00,SSW,210,11.0,13.0,91,-99.99,,,-99.99,,2013-02-15 09:01:00,
2013-02-15 04:11:00,37.0,35.0,-100.00,SSW,210,11.0,13.0,91,-99.99,,,-99.99,,2013-02-15 09:11:00,
2013-02-15 04:21:00,37.0,35.0,-100.00,SSW,210,11.0,13.0,91,-99.99,,,-99.99,,2013-02-15 09:21:00,
2013-02-15 04:30:00,36.0,35.0,-100.00,SSW,210,9.0,11.0,93,-99.99,,,-99.99,,2013-02-15 09:30:00,
2013-02-15 04:31:00,36.0,35.0,-100.00,SSW,200,11.0,13.0,93,-99.99,,,-99.99,,2013-02-15 09:31:00,
2013-02-15 04:41:00,36.0,35.0,-100.00,SSW,200,11.0,13.0,93,-99.99,,,-99.99,,2013-02-15 09:41:00,
2013-02-15 04:51:00,36.0,35.0,-100.00,SSW,200,11.0,13.0,93,-99.99,,,-99.99,,2013-02-15 09:51:00,
2013-02-15 05:01:00,36.0,35.0,-100.00,SSW,210,9.0,11.0,93,-99.99,,,-99.99,,2013-02-15 10:01:00,
2013-02-15 05:11:00,36.0,35.0,-100.00,SSW,210,9.0,11.0,93,-99.99,,,-99.99,,2013-02-15 10:11:00,
2013-02-15 05:21:00,36.0,35.0,-100.00,SSW,210,9.0,11.0,93,-99.99,,,-99.99,,2013-02-15 10:21:00,
2013-02-15 06:00:00,36.0,35.0,-100.00,SSW,210,7.0,9.0,95,-99.99,,,-99.99,,2013-02-15 11:00:00,
2013-02-15 06:42:00,36.0,35.0,-100.00,SSW,210,7.0,9.0,95,-99.99,,,-99.99,,2013-02-15 11:42:00,
2013-02-15 06:52:00,36.0,35.0,-100.00,SSW,210,7.0,9.0,95,-99.99,,,-99.99,,2013-02-15 11:52:00,
2013-02-15 07:00:00,36.0,35.0,-100.00,South,180,7.0,9.0,95,-99.99,,,-99.99,,2013-02-15 12:00:00,
2013-02-15 07:21:00,36.0,35.0,-100.00,South,180,7.0,9.0,95,-99.99,,,-99.99,,2013-02-15 12:21:00,
2013-02-15 07:31:00,36.0,35.0,-100.00,South,180,7.0,9.0,95,-99.99,,,-99.99,,2013-02-15 12:31:00,
2013-02-15 07:42:00,36.0,35.0,-100.00,South,180,7.0,9.0,95,-99.99,,,-99.99,,2013-02-15 12:42:00,
2013-02-15 07:52:00,36.0,35.0,-100.00,South,180,7.0,9.0,95,-99.99,,,-99.99,,2013-02-15 12:52:00,
2013-02-15 10:11:00,38.0,36.0,-100.00,South,190,4.0,7.0,91,-99.99,,,-99.99,,2013-02-15 15:11:00,
2013-02-15 10:21:00,38.0,36.0,-100.00,South,190,4.0,7.0,91,-99.99,,,-99.99,,2013-02-15 15:21:00,
2013-02-15 10:32:00,38.0,36.0,-100.00,South,190,4.0,7.0,91,-99.99,,,-99.99,,2013-02-15 15:32:00,
2013-02-15 10:41:00,38.0,36.0,-100.00,South,190,4.0,7.0,91,-99.99,,,-99.99,,2013-02-15 15:41:00,
2013-02-15 11:01:00,39.0,36.0,-100.00,South,190,4.0,7.0,88,-99.99,,,-99.99,,2013-02-15 16:01:00,
2013-02-15 11:11:00,39.0,36.0,-100.00,South,190,4.0,7.0,88,-99.99,,,-99.99,,2013-02-15 16:11:00,
2013-02-15 11:31:00,40.0,35.0,-100.00,SW,220,9.0,11.0,83,-99.99,,,-99.99,,2013-02-15 16:31:00,
2013-02-15 11:42:00,40.0,35.0,-100.00,SW,220,9.0,11.0,83,-99.99,,,-99.99,,2013-02-15 16:42:00,
2013-02-15 11:51:00,40.0,36.0,-100.00,SW,220,9.0,11.0,83,-99.99,,,-99.99,,2013-02-15 16:51:00,
2013-02-15 12:31:00,40.0,36.0,-100.00,SW,220,7.0,9.0,84,-99.99,,,-99.99,,2013-02-15 17:31:00,
2013-02-15 12:41:00,40.0,36.0,-100.00,SW,220,7.0,9.0,84,-99.99,,,-99.99,,2013-02-15 17:41:00,
2013-02-15 13:00:00,41.0,36.0,-100.00,SW,220,7.0,9.0,82,-99.99,,,-99.99,,2013-02-15 18:00:00,
2013-02-15 13:01:00,40.0,36.0,-100.00,SW,220,9.0,9.0,83,-99.99,,,-99.99,,2013-02-15 18:01:00,
2013-02-15 13:11:00,40.0,36.0,-100.00,SW,220,9.0,9.0,83,-99.99,,,-99.99,,2013-02-15 18:11:00,
2013-02-15 13:21:00,40.0,36.0,-100.00,SW,220,7.0,9.0,82,-99.99,,,-99.99,,2013-02-15 18:21:00,
2013-02-15 13:31:00,40.0,36.0,-100.00,SW,220,7.0,9.0,82,-99.99,,,-99.99,,2013-02-15 18:31:00,
2013-02-15 13:41:00,41.0,36.0,-100.00,SW,220,7.0,9.0,82,-99.99,,,-99.99,,2013-02-15 18:41:00,
2013-02-15 13:52:00,41.0,36.0,-100.00,SW,220,7.0,9.0,82,-99.99,,,-99.99,,2013-02-15 18:52:00,
2013-02-15 14:11:00,40.0,36.0,-100.00,SSW,210,7.0,7.0,83,-99.99,,,-99.99,,2013-02-15 19:11:00,
2013-02-15 14:21:00,40.0,36.0,-100.00,SSW,210,7.0,7.0,83,-99.99,,,-99.99,,2013-02-15 19:21:00,
2013-02-15 14:31:00,40.0,36.0,-100.00,SSW,210,7.0,7.0,83,-99.99,,,-99.99,,2013-02-15 19:31:00,
2013-02-15 14:41:00,40.0,35.0,-100.00,South,190,7.0,9.0,82,-99.99,,,-99.99,,2013-02-15 19:41:00,
2013-02-15 14:51:00,40.0,35.0,-100.00,South,190,7.0,9.0,82,-99.99,,,-99.99,,2013-02-15 19:51:00,
2013-02-15 15:01:00,40.0,36.0,-100.00,South,180,7.0,7.0,84,-99.99,,,-99.99,,2013-02-15 20:01:00,
2013-02-15 15:11:00,40.0,36.0,-100.00,South,180,7.0,7.0,84,-99.99,,,-99.99,,2013-02-15 20:11:00,
2013-02-15 15:21:00,41.0,36.0,-100.00,South,190,9.0,9.0,82,-99.99,,,-99.99,,2013-02-15 20:21:00,
2013-02-15 15:32:00,41.0,36.0,-100.00,South,190,9.0,9.0,82,-99.99,,,-99.99,,2013-02-15 20:32:00,
2013-02-15 15:42:00,41.0,36.0,-100.00,South,180,9.0,9.0,81,-99.99,,,-99.99,,2013-02-15 20:42:00,
2013-02-15 15:52:00,41.0,36.0,-100.00,South,180,9.0,9.0,81,-99.99,,,-99.99,,2013-02-15 20:52:00,
2013-02-15 16:01:00,41.0,35.0,-100.00,South,190,9.0,9.0,79,-99.99,,,-99.99,,2013-02-15 21:01:00,
2013-02-15 16:11:00,41.0,35.0,-100.00,South,190,9.0,9.0,79,-99.99,,,-99.99,,2013-02-15 21:11:00,
2013-02-15 16:21:00,41.0,35.0,-100.00,South,190,9.0,9.0,79,-99.99,,,-99.99,,2013-02-15 21:21:00,
2013-02-15 16:31:00,40.0,36.0,-100.00,South,190,7.0,9.0,83,-99.99,,,-99.99,,2013-02-15 21:31:00,
2013-02-15 16:42:00,40.0,36.0,-100.00,South,190,7.0,9.0,83,-99.99,,,-99.99,,2013-02-15 21:42:00,
2013-02-15 16:51:00,40.0,36.0,-100.00,South,190,7.0,9.0,83,-99.99,,,-99.99,,2013-02-15 21:51:00,
2013-02-15 17:00:00,41.0,35.0,-100.00,SSW,200,11.0,13.0,79,-99.99,,,-99.99,,2013-02-15 22:00:00,
2013-02-15 17:01:00,41.0,36.0,-100.00,SSW,200,9.0,9.0,82,-99.99,,,-99.99,,2013-02-15 22:01:00,
2013-02-15 17:11:00,41.0,36.0,-100.00,SSW,200,9.0,9.0,82,-99.99,,,-99.99,,2013-02-15 22:11:00,
2013-02-15 17:21:00,41.0,36.0,-100.00,SSW,200,9.0,9.0,82,-99.99,,,-99.99,,2013-02-15 22:21:00,
2013-02-15 17:31:00,41.0,35.0,-100.00,South,190,11.0,13.0,80,-99.99,,,-99.99,,2013-02-15 22:31:00,
2013-02-15 17:41:00,41.0,35.0,-100.00,SSW,200,11.0,13.0,79,-99.99,,,-99.99,,2013-02-15 22:41:00,
2013-02-15 17:51:00,41.0,35.0,-100.00,SSW,200,11.0,13.0,79,-99.99,,,-99.99,,2013-02-15 22:51:00,
2013-02-15 18:00:00,40.0,36.0,-100.00,South,190,11.0,11.0,82,-99.99,,,-99.99,,2013-02-15 23:00:00,
2013-02-15 18:21:00,40.0,35.0,-100.00,SSW,200,11.0,13.0,82,-99.99,,,-99.99,,2013-02-15 23:21:00,
2013-02-15 18:31:00,40.0,35.0,-100.00,SSW,200,11.0,13.0,82,-99.99,,,-99.99,,2013-02-15 23:31:00,
2013-02-15 18:41:00,40.0,36.0,-100.00,South,190,11.0,11.0,82,-99.99,,,-99.99,,2013-02-15 23:41:00,
2013-02-15 18:52:00,40.0,36.0,-100.00,South,190,11.0,11.0,82,-99.99,,,-99.99,,2013-02-15 23:52:00,
2013-02-15 19:21:00,40.0,36.0,-100.00,South,190,9.0,9.0,86,-99.99,,,-99.99,,2013-02-16 00:21:00,
2013-02-15 19:31:00,40.0,36.0,-100.00,South,190,9.0,9.0,86,-99.99,,,-99.99,,2013-02-16 00:31:00,
2013-02-15 19:41:00,39.0,36.0,-100.00,South,180,7.0,9.0,87,-99.99,,,-99.99,,2013-02-16 00:41:00,
2013-02-15 19:51:00,39.0,36.0,-100.00,South,180,7.0,9.0,87,-99.99,,,-99.99,,2013-02-16 00:51:00,
2013-02-15 20:01:00,39.0,37.0,-100.00,South,190,11.0,13.0,90,-99.99,,,-99.99,,2013-02-16 01:01:00,
2013-02-15 20:11:00,39.0,37.0,-100.00,South,190,11.0,13.0,90,-99.99,,,-99.99,,2013-02-16 01:11:00,
2013-02-15 20:21:00,39.0,37.0,-100.00,South,190,11.0,13.0,90,-99.99,,,-99.99,,2013-02-16 01:21:00,
2013-02-15 20:31:00,39.0,37.0,-100.00,South,190,11.0,13.0,93,-99.99,,,-99.99,,2013-02-16 01:31:00,
2013-02-15 20:41:00,39.0,37.0,-100.00,South,190,11.0,13.0,93,-99.99,,,-99.99,,2013-02-16 01:41:00,
2013-02-15 20:51:00,39.0,37.0,-100.00,South,190,11.0,13.0,93,-99.99,,,-99.99,,2013-02-16 01:51:00,
2013-02-15 21:00:00,40.0,38.0,-100.00,SW,230,9.0,16.0,91,-99.99,,,-99.99,,2013-02-16 02:00:00,
2013-02-15 21:01:00,40.0,38.0,-100.00,WSW,250,9.0,16.0,93,-99.99,,,-99.99,,2013-02-16 02:01:00,
2013-02-15 21:11:00,40.0,38.0,-100.00,WSW,250,9.0,16.0,93,-99.99,,,-99.99,,2013-02-16 02:11:00,
2013-02-15 21:21:00,40.0,38.0,-100.00,WSW,240,9.0,18.0,91,-99.99,,,-99.99,,2013-02-16 02:21:00,
2013-02-15 21:31:00,40.0,38.0,-100.00,WSW,240,9.0,18.0,91,-99.99,,,-99.99,,2013-02-16 02:31:00,
2013-02-15 21:42:00,40.0,38.0,-100.00,SW,230,9.0,16.0,91,-99.99,,,-99.99,,2013-02-16 02:42:00,
2013-02-15 21:51:00,40.0,38.0,-100.00,SW,230,9.0,16.0,91,-99.99,,,-99.99,,2013-02-16 02:51:00,
2013-02-15 22:21:00,40.0,38.0,-100.00,SW,220,7.0,9.0,91,-99.99,,,-99.99,,2013-02-16 03:21:00,
2013-02-15 22:31:00,40.0,38.0,-100.00,SW,220,7.0,9.0,91,-99.99,,,-99.99,,2013-02-16 03:31:00,
2013-02-15 22:41:00,40.0,38.0,-100.00,SW,230,7.0,9.0,90,-99.99,,,-99.99,,2013-02-16 03:41:00,
2013-02-15 22:52:00,40.0,38.0,-100.00,SW,230,7.0,9.0,90,-99.99,,,-99.99,,2013-02-16 03:52:00,
2013-02-15 23:01:00,40.0,38.0,-100.00,WSW,240,4.0,7.0,90,-99.99,,,-99.99,,2013-02-16 04:01:00,
2013-02-15 23:11:00,40.0,38.0,-100.00,WSW,240,4.0,7.0,90,-99.99,,,-99.99,,2013-02-16 04:11:00,
2013-02-15 23:21:00,40.0,38.0,-100.00,WSW,240,4.0,7.0,90,-99.99,,,-99.99,,2013-02-16 04:21:00,
2013-02-15 23:31:00,39.0,37.0,-100.00,North,0,0.0,4.0,91,-99.99,,,-99.99,,2013-02-16 04:31:00,
2013-02-15 23:41:00,38.0,37.0,-100.00,North,10,2.0,4.0,93,-99.99,,,-99.99,,2013-02-16 04:41:00,
2013-02-15 23:51:00,38.0,37.0,-100.00,North,10,2.0,4.0,93,-99.99,,,-99.99,,2013-02-16 04:51:00,